Date,TemperatureHighF,TemperatureAvgF,TemperatureLowF,DewpointHighF,DewpointAvgF,DewpointLowF,HumidityHigh,HumidityAvg,HumidityLow,PressureMaxIn,PressureMinIn,WindSpeedMaxMPH,WindSpeedAvgMPH,GustSpeedMaxMPH,PrecipitationSumIn
2013-1-1,16,10,6,-100,-100,-100,0,0,100,0.00,40.00,0,-999,0,0.00
2013-1-2,20,11,5,-100,-100,-100,0,0,100,0.00,40.00,0,-999,0,0.00
2013-1-3,14,6,-1,-100,-100,-100,0,0,100,0.00,40.00,0,-999,0,0.00
2013-1-4,19,8,4,-100,-100,-100,0,0,100,0.00,40.00,0,-999,0,0.00
2013-1-5,25,14,7,-100,-100,-100,0,0,100,0.00,40.00,0,-999,0,0.00
2013-1-6,26,16,9,-100,-100,-100,0,0,100,0.00,40.00,0,-999,0,0.00
2013-1-7,29,21,15,-100,-100,-100,0,0,100,0.00,40.00,0,-999,0,0.00
2013-1-8,31,22,18,-100,-100,-100,0,0,100,0.00,40.00,0,-999,0,0.00
2013-1-9,29,21,14,-100,-100,-100,0,0,100,0.00,40.00,0,-999,0,0.00
2013-1-10,39,28,20,-100,-100,-100,0,0,100,0.00,40.00,0,-999,0,0.01
2013-1-11,30,20,7,-100,-100,-100,0,0,100,0.00,40.00,0,-999,0,0.01
2013-1-12,11,4,-1,-100,-100,-100,0,0,100,0.00,40.00,0,-999,0,0.00
2013-1-13,10,2,-4,-100,-100,-100,0,0,100,0.00,40.00,0,-999,0,0.00
2013-1-14,8,-3,-8,-100,-100,-100,0,0,100,0.00,40.00,0,-999,0,0.00
2013-1-15,3,-7,-10,-100,-100,-100,0,0,100,0.00,40.00,0,-999,0,0.00
2013-1-16,6,6,6,-100,-100,-100,0,0,100,0.00,40.00,0,-999,0,0.00
2013-2-2,23,23,22,-100,-100,-100,0,0,100,0.00,40.00,0,-999,0,0.00
2013-2-3,39,26,20,-100,-100,-100,0,0,100,0.00,40.00,0,-999,0,0.00
2013-2-4,36,24,15,-100,-100,-100,0,0,100,0.00,40.00,0,-999,0,0.00
2013-2-5,38,27,19,-100,-100,-100,0,0,100,0.00,40.00,0,-999,0,0.00
2013-2-6,39,29,24,-100,-100,-100,0,0,100,0.00,40.00,0,-999,0,0.01
2013-2-7,32,19,13,-100,-100,-100,0,0,100,0.00,40.00,0,-999,0,0.01
2013-2-8,38,25,16,-100,-100,-100,0,0,100,0.00,40.00,0,-999,0,0.01
2013-2-9,30,25,15,-100,-100,-100,0,0,100,0.00,40.00,0,-999,0,0.01
2013-2-10,28,18,13,-100,-100,-100,0,0,100,0.00,40.00,0,-999,0,0.01
2013-2-11,25,14,9,-100,-100,-100,0,0,100,0.00,40.00,0,-999,0,0.00
2013-2-12,25,10,2,-100,-100,-100,0,0,100,0.00,40.00,0,-999,0,0.00
2013-2-13,30,21,15,-100,-100,-100,0,0,100,0.00,40.00,0,-999,0,0.00
2013-2-14,28,23,20,-100,-100,-100,0,0,100,0.00,40.00,0,-999,0,0.00
2013-2-15,27,22,16,-100,-100,-100,0,0,100,0.00,40.00,0,-999,0,0.00
2013-2-16,37,22,13,-100,-100,-100,0,0,100,0.00,40.00,0,-999,0,0.00
2013-2-17,41,27,19,-100,-100,-100,0,0,100,0.00,40.00,0,-999,0,0.01
2013-2-18,27,18,11,-100,-100,-100,0,0,100,0.00,40.00,0,-999,0,0.01
2013-2-19,37,18,8,-100,-100,-100,0,0,100,0.00,40.00,0,-999,0,0.00
2013-2-20,36,28,21,-100,-100,-100,0,0,100,0.00,40.00,0,-999,0,0.01
2013-2-21,28,24,19,-100,-100,-100,0,0,100,0.00,40.00,0,-999,0,0.01
2013-2-22,27,19,12,-100,-100,-100,0,0,100,0.00,40.00,0,-999,0,0.01
2013-2-23,30,18,9,-100,-100,-100,0,0,100,0.00,40.00,0,-999,0,0.00
2013-2-24,22,17,15,-100,-100,-100,0,0,100,0.00,40.00,0,-999,0,0.01
2013-2-25,31,15,6,-100,-100,-100,0,0,100,0.00,40.00,0,-999,0,0.00
2013-2-26,23,18,14,-100,-100,-100,0,0,100,0.00,40.00,0,-999,0,0.01
2013-2-27,26,15,9,-100,-100,-100,0,0,100,0.00,40.00,0,-999,0,0.00
2013-2-28,28,16,4,-100,-100,-100,0,0,100,0.00,40.00,0,-999,0,0.01
2013-3-1,35,27,21,-100,-100,-100,0,0,100,0.00,40.00,0,-999,0,0.02
2013-3-2,44,34,27,-100,-100,-100,0,0,100,0.00,40.00,0,-999,0,0.00
2013-3-3,43,35,28,-100,-100,-100,0,0,100,0.00,40.00,0,-999,0,0.01
2013-3-4,34,29,10,-100,-100,-100,0,0,100,0.00,40.00,0,-999,0,0.02
2013-3-5,42,22,8,-100,-100,-100,0,0,100,0.00,40.00,0,-999,0,0.00
2013-3-6,49,32,22,-100,-100,-100,0,0,100,0.00,40.00,0,-999,0,0.01
2013-3-7,51,37,30,-100,-100,-100,0,0,100,0.00,40.00,0,-999,0,0.00
2013-3-8,45,36,29,-100,-100,-100,0,0,100,0.00,40.00,0,-999,0,0.01
2013-3-9,34,29,20,-100,-100,-100,0,0,100,0.00,40.00,0,-999,0,0.02
2013-3-10,34,24,15,-100,-100,-100,0,0,100,0.00,40.00,0,-999,0,0.02
2013-3-11,39,28,19,-100,-100,-100,0,0,100,0.00,40.00,0,-999,0,0.01
2013-3-12,43,34,29,-100,-100,-100,0,0,100,0.00,40.00,0,-999,0,0.00
2013-3-13,48,36,28,-100,-100,-100,0,0,100,0.00,40.00,0,-999,0,0.01
2013-3-14,53,39,30,-100,-100,-100,0,0,100,0.00,40.00,0,-999,0,0.00
2013-3-15,54,41,33,-100,-100,-100,0,0,100,0.00,40.00,0,-999,0,0.00
2013-3-16,43,38,31,-100,-100,-100,0,0,100,0.00,40.00,0,-999,0,0.01
2013-3-17,37,32,27,-100,-100,-100,0,0,100,0.00,40.00,0,-999,0,0.01
2013-3-18,36,28,19,-100,-100,-100,0,0,100,0.00,40.00,0,-999,0,0.01
2013-3-19,41,33,24,-100,-100,-100,0,0,100,0.00,40.00,0,-999,0,0.00
2013-3-20,43,31,20,-100,-100,-100,0,0,100,0.00,40.00,0,-999,0,0.01
2013-3-21,36,30,24,-100,-100,-100,0,0,100,0.00,40.00,0,-999,0,0.02
2013-3-22,36,26,18,-100,-100,-100,0,0,100,0.00,40.00,0,-999,0,0.02
2013-3-23,25,19,14,-100,-100,-100,0,0,100,0.00,40.00,0,-999,0,0.01
2013-3-24,19,13,7,-100,-100,-100,0,0,100,0.00,40.00,0,-999,0,0.01
2013-3-25,33,15,2,-100,-100,-100,0,0,100,0.00,40.00,0,-999,0,0.00
2013-3-26,47,29,14,-100,-100,-100,0,0,100,0.00,40.00,0,-999,0,0.01
2013-3-27,50,42,29,-100,-100,-100,0,0,100,0.00,40.00,0,-999,0,0.01
2013-3-28,53,39,30,-100,-100,-100,0,0,100,0.00,40.00,0,-999,0,0.01
2013-3-29,52,43,35,-100,-100,-100,0,0,100,0.00,40.00,0,-999,0,0.00
2013-3-30,48,39,31,-100,-100,-100,0,0,100,0.00,40.00,0,-999,0,0.00
2013-3-31,55,43,28,-100,-100,-100,0,0,100,0.00,40.00,0,-999,0,0.00
2013-4-1,52,40,32,-100,-100,-100,0,0,100,0.00,40.00,0,-999,0,0.01
2013-4-2,42,34,30,-100,-100,-100,0,0,100,0.00,40.00,0,-999,0,0.01
2013-4-3,50,36,29,-100,-100,-100,0,0,100,0.00,40.00,0,-999,0,0.01
2013-4-4,55,39,30,-100,-100,-100,0,0,100,0.00,40.00,0,-999,0,0.00
2013-4-5,55,43,36,-100,-100,-100,0,0,100,0.00,40.00,0,-999,0,0.00
2013-4-6,49,40,30,-100,-100,-100,0,0,100,0.00,40.00,0,-999,0,0.01
2013-4-7,45,37,32,-100,-100,-100,0,0,100,0.00,40.00,0,-999,0,0.01
2013-4-8,53,42,35,-100,-100,-100,0,0,100,0.00,40.00,0,-999,0,0.01
2013-4-9,41,33,24,-100,-100,-100,0,0,100,0.00,40.00,0,-999,0,0.01
2013-4-10,35,23,15,-100,-100,-100,0,0,100,0.00,40.00,0,-999,0,0.01
2013-4-11,41,31,22,-100,-100,-100,0,0,100,0.00,40.00,0,-999,0,0.01
2013-4-12,47,35,29,-100,-100,-100,0,0,100,0.00,40.00,0,-999,0,0.01
2013-4-13,50,39,29,-100,-100,-100,0,0,100,0.00,40.00,0,-999,0,0.01
2013-4-14,39,30,24,-100,-100,-100,0,0,100,0.00,40.00,0,-999,0,0.04
2013-4-15,32,30,27,-100,-100,-100,0,0,100,0.00,40.00,0,-999,0,0.03
2013-4-16,54,36,26,-100,-100,-100,0,0,100,0.00,40.00,0,-999,0,0.01
2013-4-17,30,26,17,-100,-100,-100,0,0,100,0.00,40.00,0,-999,0,0.03
2013-4-18,30,19,12,-100,-100,-100,0,0,100,0.00,40.00,0,-999,0,0.01
2013-4-19,40,27,15,-100,-100,-100,0,0,100,0.00,40.00,0,-999,0,0.01
2013-4-20,44,34,29,-100,-100,-100,0,0,100,0.00,40.00,0,-999,0,0.01
2013-4-21,50,38,31,-100,-100,-100,0,0,100,0.00,40.00,0,-999,0,0.01
2013-4-22,46,38,30,-100,-100,-100,0,0,100,0.00,40.00,0,-999,0,0.00
2013-4-23,37,29,25,-100,-100,-100,0,0,100,0.00,40.00,0,-999,0,0.02
2013-4-24,45,39,28,-100,-100,-100,0,0,100,0.00,40.00,0,-999,0,0.00
2013-4-25,54,40,24,-100,-100,-100,0,0,100,0.00,40.00,0,-999,0,0.00
2013-4-26,59,43,32,-100,-100,-100,0,0,100,0.00,40.00,0,-999,0,0.00
2013-4-27,59,43,31,-100,-100,-100,0,0,100,0.00,40.00,0,-999,0,0.00
2013-4-28,62,46,35,-100,-100,-100,0,0,100,0.00,40.00,0,-999,0,0.00
2013-4-29,60,50,39,-100,-100,-100,0,0,100,0.00,40.00,0,-999,0,0.00
2013-4-30,60,49,39,-100,-100,-100,0,0,100,0.00,40.00,0,-999,0,0.00
2013-5-1,39,33,25,-100,-100,-100,0,0,100,0.00,40.00,0,-999,0,0.02
2013-5-2,43,30,20,-100,-100,-100,0,0,100,0.00,40.00,0,-999,0,0.01
2013-5-3,55,40,24,-100,-100,-100,0,0,100,0.00,40.00,0,-999,0,0.00
2013-5-4,57,42,33,-100,-100,-100,0,0,100,0.00,40.00,0,-999,0,0.00
2013-5-5,55,45,35,-100,-100,-100,0,0,100,0.00,40.00,0,-999,0,0.00
2013-5-6,53,43,37,-100,-100,-100,0,0,100,0.00,40.00,0,-999,0,0.00
2013-5-7,51,40,35,-100,-100,-100,0,0,100,0.00,40.00,0,-999,0,0.01
2013-5-8,44,36,33,-100,-100,-100,0,0,100,0.00,40.00,0,-999,0,0.02
2013-5-9,53,40,34,-100,-100,-100,0,0,100,0.00,40.00,0,-999,0,0.01
2013-5-10,56,41,33,-100,-100,-100,0,0,100,0.00,40.00,0,-999,0,0.00
2013-5-11,59,45,35,-100,-100,-100,0,0,100,0.00,40.00,0,-999,0,0.00
2013-5-12,62,48,38,-100,-100,-100,0,0,100,0.00,40.00,0,-999,0,0.00
2013-5-13,67,51,42,-100,-100,-100,0,0,100,0.00,40.00,0,-999,0,0.01
2013-5-14,70,53,43,-100,-100,-100,0,0,100,0.00,40.00,0,-999,0,0.00
2013-5-15,63,50,42,-100,-100,-100,0,0,100,0.00,40.00,0,-999,0,0.01
2013-5-16,64,49,39,-100,-100,-100,0,0,100,0.00,40.00,0,-999,0,0.00
2013-5-17,67,54,44,-100,-100,-100,0,0,100,0.00,40.00,0,-999,0,0.00
2013-5-18,55,46,36,-100,-100,-100,0,0,100,0.00,40.00,0,-999,0,0.01
2013-5-19,47,39,35,-100,-100,-100,0,0,100,0.00,40.00,0,-999,0,0.01
2013-5-20,48,40,34,-100,-100,-100,0,0,100,0.00,40.00,0,-999,0,0.01
2013-5-21,56,45,35,-100,-100,-100,0,0,100,0.00,40.00,0,-999,0,0.01
2013-5-22,67,51,39,-100,-100,-100,0,0,100,0.00,40.00,0,-999,0,0.00
2013-5-23,72,59,47,-100,-100,-100,0,0,100,0.00,40.00,0,-999,0,0.01
2013-5-24,68,55,42,-100,-100,-100,0,0,100,0.00,40.00,0,-999,0,0.00
2013-5-25,70,56,43,-100,-100,-100,0,0,100,0.00,40.00,0,-999,0,0.00
2013-5-26,69,56,43,-100,-100,-100,0,0,100,0.00,40.00,0,-999,0,0.00
2013-5-27,64,54,43,-100,-100,-100,0,0,100,0.00,40.00,0,-999,0,0.00
2013-5-28,64,53,42,-100,-100,-100,0,0,100,0.00,40.00,0,-999,0,0.00
2013-5-29,47,42,37,-100,-100,-100,0,0,100,0.00,40.00,0,-999,0,0.01
2013-5-30,51,42,37,-100,-100,-100,0,0,100,0.00,40.00,0,-999,0,0.01
2013-5-31,53,46,38,-100,-100,-100,0,0,100,0.00,40.00,0,-999,0,0.00
2013-6-1,59,48,35,-100,-100,-100,0,0,100,0.00,40.00,0,-999,0,0.01
2013-6-2,70,55,39,-100,-100,-100,0,0,100,0.00,40.00,0,-999,0,0.00
2013-6-3,69,58,47,-100,-100,-100,0,0,100,0.00,40.00,0,-999,0,0.00
2013-6-4,69,59,44,-100,-100,-100,0,0,100,0.00,40.00,0,-999,0,0.00
2013-6-5,66,54,43,-100,-100,-100,0,0,100,0.00,40.00,0,-999,0,0.00
2013-6-6,67,54,41,-100,-100,-100,0,0,100,0.00,40.00,0,-999,0,0.00
2013-6-7,66,53,45,-100,-100,-100,0,0,100,0.00,40.00,0,-999,0,0.00
2013-6-8,69,57,48,-100,-100,-100,0,0,100,0.00,40.00,0,-999,0,0.00
2013-6-9,74,60,45,-100,-100,-100,0,0,100,0.00,40.00,0,-999,0,0.00
2013-6-10,78,62,50,-100,-100,-100,0,0,100,0.00,40.00,0,-999,0,0.00
2013-6-11,74,64,50,-100,-100,-100,0,0,100,0.00,40.00,0,-999,0,0.00
2013-6-12,76,61,47,-100,-100,-100,0,0,100,0.00,40.00,0,-999,0,0.00
2013-6-13,77,64,53,-100,-100,-100,0,0,100,0.00,40.00,0,-999,0,0.00
2013-6-14,75,61,50,-100,-100,-100,0,0,100,0.00,40.00,0,-999,0,0.00
2013-6-15,71,57,43,-100,-100,-100,0,0,100,0.00,40.00,0,-999,0,0.00
2013-6-16,62,54,46,-100,-100,-100,0,0,100,0.00,40.00,0,-999,0,0.00
2013-6-17,69,56,44,-100,-100,-100,0,0,100,0.00,40.00,0,-999,0,0.00
2013-6-18,71,59,47,-100,-100,-100,0,0,100,0.00,40.00,0,-999,0,0.01
2013-6-19,77,61,47,-100,-100,-100,0,0,100,0.00,40.00,0,-999,0,0.00
2013-6-20,74,55,44,-100,-100,-100,0,0,100,0.00,40.00,0,-999,0,0.00
2013-6-22,71,63,54,-100,-100,-100,0,0,100,0.00,40.00,0,-999,0,0.00
2013-6-23,71,57,42,-100,-100,-100,0,0,100,0.00,40.00,0,-999,0,0.00
2013-6-24,71,60,47,-100,-100,-100,0,0,100,0.00,40.00,0,-999,0,0.01
2013-6-25,69,59,50,-100,-100,-100,0,0,100,0.00,40.00,0,-999,0,0.91
2013-6-26,76,63,49,-100,-100,-100,0,0,100,0.00,40.00,0,-999,0,0.91
2013-6-27,81,66,52,-100,-100,-100,0,0,100,0.00,40.00,0,-999,0,0.00
2013-6-28,82,68,55,-100,-100,-100,0,0,100,0.00,40.00,0,-999,0,0.00
2013-6-29,76,63,55,-100,-100,-100,0,0,100,0.00,40.00,0,-999,0,0.01
2013-6-30,73,60,50,-100,-100,-100,0,0,100,0.00,40.00,0,-999,0,0.01
2013-7-1,73,58,48,-100,-100,-100,0,0,100,0.00,40.00,0,-999,0,0.01
2013-7-2,73,59,48,-100,-100,-100,0,0,100,0.00,40.00,0,-999,0,0.00
2013-7-3,74,58,47,-100,-100,-100,0,0,100,0.00,40.00,0,-999,0,0.01
2013-7-4,76,60,47,-100,-100,-100,0,0,100,0.00,40.00,0,-999,0,0.01
2013-7-5,71,61,53,-100,-100,-100,0,0,100,0.00,40.00,0,-999,0,0.01
2013-7-6,71,58,49,-100,-100,-100,0,0,100,0.00,40.00,0,-999,0,0.01
2013-7-7,75,63,51,-100,-100,-100,0,0,100,0.00,40.00,0,-999,0,0.01
2013-7-8,74,58,48,-100,-100,-100,0,0,100,0.00,40.00,0,-999,0,0.01
2013-7-9,75,63,53,-100,-100,-100,0,0,100,0.00,40.00,0,-999,0,0.01
2013-7-10,81,65,55,-100,-100,-100,0,0,100,0.00,40.00,0,-999,0,0.01
2013-7-11,84,66,54,-100,-100,-100,0,0,100,0.00,40.00,0,-999,0,0.00
2013-7-12,70,58,53,-100,-100,-100,0,0,100,0.00,40.00,0,-999,0,0.01
2013-7-13,70,61,52,-100,-100,-100,0,0,100,0.00,40.00,0,-999,0,0.01
2013-7-14,72,61,50,-100,-100,-100,0,0,100,0.00,40.00,0,-999,0,0.00
2013-7-15,72,58,51,-100,-100,-100,0,0,100,0.00,40.00,0,-999,0,0.01
2013-7-16,78,62,49,-100,-100,-100,0,0,100,0.00,40.00,0,-999,0,0.00
2013-7-17,81,60,53,-100,-100,-100,0,0,100,0.00,40.00,0,-999,0,0.01
2013-7-18,77,58,52,-100,-100,-100,0,0,100,0.00,40.00,0,-999,0,0.02
2013-7-19,77,61,51,-100,-100,-100,0,0,100,0.00,40.00,0,-999,0,0.01
2013-7-20,78,61,52,-100,-100,-100,0,0,100,0.00,40.00,0,-999,0,0.02
2013-7-21,80,63,51,-100,-100,-100,0,0,100,0.00,40.00,0,-999,0,0.00
2013-7-22,81,66,55,-100,-100,-100,0,0,100,0.00,40.00,0,-999,0,0.03
2013-7-23,82,64,52,-100,-100,-100,0,0,100,0.00,40.00,0,-999,0,0.00
2013-7-24,73,63,57,-100,-100,-100,0,0,100,0.00,40.00,0,-999,0,0.00
2013-7-25,72,58,51,-100,-100,-100,0,0,100,0.00,40.00,0,-999,0,0.01
2013-7-26,76,61,47,-100,-100,-100,0,0,100,0.00,40.00,0,-999,0,0.01
2013-7-27,75,58,51,-100,-100,-100,0,0,100,0.00,40.00,0,-999,0,0.02
2013-7-28,62,54,50,-100,-100,-100,0,0,100,0.00,40.00,0,-999,0,0.02
2013-7-29,62,53,48,-100,-100,-100,0,0,100,0.00,40.00,0,-999,0,0.01
2013-7-30,70,58,46,-100,-100,-100,0,0,100,0.00,40.00,0,-999,0,0.01
2013-7-31,73,60,49,-100,-100,-100,0,0,100,0.00,40.00,0,-999,0,0.03
2013-8-1,66,57,51,-100,-100,-100,0,0,100,0.00,40.00,0,-999,0,0.00
2013-8-2,73,60,49,-100,-100,-100,0,0,100,0.00,40.00,0,-999,0,0.00
2013-8-3,74,58,52,-100,-100,-100,0,0,100,0.00,40.00,0,-999,0,0.01
2013-8-4,72,58,49,-100,-100,-100,0,0,100,0.00,40.00,0,-999,0,0.01
2013-8-5,72,56,47,-100,-100,-100,0,0,100,0.00,40.00,0,-999,0,0.01
2013-8-6,70,54,47,-100,-100,-100,0,0,100,0.00,40.00,0,-999,0,0.01
2013-8-7,64,53,47,-100,-100,-100,0,0,100,0.00,40.00,0,-999,0,0.01
2013-8-8,64,54,47,-100,-100,-100,0,0,100,0.00,40.00,0,-999,0,0.00
2013-8-9,69,54,45,-100,-100,-100,0,0,100,0.00,40.00,0,-999,0,0.00
2013-8-10,73,56,45,-100,-100,-100,0,0,100,0.00,40.00,0,-999,0,0.00
2013-8-11,72,56,46,-100,-100,-100,0,0,100,0.00,40.00,0,-999,0,0.00
2013-8-12,69,58,48,-100,-100,-100,0,0,100,0.00,40.00,0,-999,0,0.00
2013-8-13,69,54,45,-100,-100,-100,0,0,100,0.00,40.00,0,-999,0,0.00
2013-8-14,70,52,43,-100,-100,-100,0,0,100,0.00,40.00,0,-999,0,0.01
2013-8-15,75,58,46,-100,-100,-100,0,0,100,0.00,40.00,0,-999,0,0.00
2013-8-16,79,63,49,-100,-100,-100,0,0,100,0.00,40.00,0,-999,0,0.00
2013-8-17,81,66,54,-100,-100,-100,0,0,100,0.00,40.00,0,-999,0,0.00
2013-8-18,77,62,51,-100,-100,-100,0,0,100,0.00,40.00,0,-999,0,0.01
2013-8-19,80,61,48,-100,-100,-100,0,0,100,0.00,40.00,0,-999,0,0.00
2013-8-20,72,58,53,-100,-100,-100,0,0,100,0.00,40.00,0,-999,0,0.01
2013-8-21,73,59,49,-100,-100,-100,0,0,100,0.00,40.00,0,-999,0,0.00
2013-8-22,69,58,53,-100,-100,-100,0,0,100,0.00,40.00,0,-999,0,0.01
2013-8-23,71,56,49,-100,-100,-100,0,0,100,0.00,40.00,0,-999,0,0.02
2013-8-24,69,57,47,-100,-100,-100,0,0,100,0.00,40.00,0,-999,0,0.01
2013-8-25,69,57,50,-100,-100,-100,0,0,100,0.00,40.00,0,-999,0,0.00
2013-8-26,64,55,52,-100,-100,-100,0,0,100,0.00,40.00,0,-999,0,0.02
2013-8-27,63,53,49,-100,-100,-100,0,0,100,0.00,40.00,0,-999,0,0.02
2013-8-28,75,67,57,-100,-100,-100,0,0,100,0.00,40.00,0,-999,0,0.00
2013-8-29,78,59,49,-100,-100,-100,0,0,100,0.00,40.00,0,-999,0,0.00
2013-8-30,74,60,52,-100,-100,-100,0,0,100,0.00,40.00,0,-999,0,0.01
2013-8-31,73,57,49,-100,-100,-100,0,0,100,0.00,40.00,0,-999,0,0.01
2013-9-1,72,60,50,-100,-100,-100,0,0,100,0.00,40.00,0,-999,0,0.00
2013-9-2,75,60,52,-100,-100,-100,0,0,100,0.00,40.00,0,-999,0,0.00
2013-9-3,76,61,52,-100,-100,-100,0,0,100,0.00,40.00,0,-999,0,0.00
2013-9-4,76,64,55,-100,-100,-100,0,0,100,0.00,40.00,0,-999,0,0.00
2013-9-5,75,60,52,-100,-100,-100,0,0,100,0.00,40.00,0,-999,0,0.00
2013-9-6,76,59,52,-100,-100,-100,0,0,100,0.00,40.00,0,-999,0,0.01
2013-9-7,73,58,49,-100,-100,-100,0,0,100,0.00,40.00,0,-999,0,0.01
2013-9-8,72,58,50,-100,-100,-100,0,0,100,0.00,40.00,0,-999,0,0.00
2013-9-9,60,53,49,-100,-100,-100,0,0,100,0.00,40.00,0,-999,0,0.01
2013-9-10,65,54,48,-100,-100,-100,0,0,100,0.00,40.00,0,-999,0,0.01
2013-9-11,62,56,49,-100,-100,-100,0,0,100,0.00,40.00,0,-999,0,0.00
2013-9-12,61,52,48,-100,-100,-100,0,0,100,0.00,40.00,0,-999,0,0.00
2013-9-13,62,53,49,-100,-100,-100,0,0,100,0.00,40.00,0,-999,0,0.03
2013-9-14,58,51,48,-100,-100,-100,0,0,100,0.00,40.00,0,-999,0,0.01
2013-9-15,57,49,44,-100,-100,-100,0,0,100,0.00,40.00,0,-999,0,0.01
2013-9-16,61,50,43,-100,-100,-100,0,0,100,0.00,40.00,0,-999,0,0.01
2013-9-17,67,52,45,-100,-100,-100,0,0,100,0.00,40.00,0,-999,0,0.00
2013-9-18,51,48,46,-100,-100,-100,0,0,100,0.00,40.00,0,-999,0,0.02
2013-9-19,59,47,42,-100,-100,-100,0,0,100,0.00,40.00,0,-999,0,0.02
2013-9-20,63,49,37,-100,-100,-100,0,0,100,0.00,40.00,0,-999,0,0.00
2013-9-21,65,52,43,-100,-100,-100,0,0,100,0.00,40.00,0,-999,0,0.00
2013-9-22,58,47,38,-100,-100,-100,0,0,100,0.00,40.00,0,-999,0,0.02
2013-9-23,50,41,37,-100,-100,-100,0,0,100,0.00,40.00,0,-999,0,0.02
2013-9-24,60,43,34,-100,-100,-100,0,0,100,0.00,40.00,0,-999,0,0.00
2013-9-25,67,52,42,-100,-100,-100,0,0,100,0.00,40.00,0,-999,0,0.00
2013-9-26,68,54,44,-100,-100,-100,0,0,100,0.00,40.00,0,-999,0,0.00
2013-9-27,48,39,31,-100,-100,-100,0,0,100,0.00,40.00,0,-999,0,0.01
2013-9-28,50,35,27,-100,-100,-100,0,0,100,0.00,40.00,0,-999,0,0.01
2013-9-30,63,49,40,-100,-100,-100,0,0,100,0.00,40.00,0,-999,0,0.00
2013-10-1,52,49,48,-100,-100,-100,0,0,100,0.00,40.00,0,-999,0,0.00
2013-10-2,63,51,41,-100,-100,-100,0,0,100,0.00,40.00,0,-999,0,0.00
2013-10-3,63,51,42,-100,-100,-100,0,0,100,0.00,40.00,0,-999,0,0.00
2013-10-4,32,30,26,-100,-100,-100,0,0,100,0.00,40.00,0,-999,0,0.02
2013-10-5,41,31,24,-100,-100,-100,0,0,100,0.00,40.00,0,-999,0,0.01
2013-10-6,49,32,25,-100,-100,-100,0,0,100,0.00,40.00,0,-999,0,0.00
2013-10-7,56,40,33,-100,-100,-100,0,0,100,0.00,40.00,0,-999,0,0.00
2013-10-8,59,46,38,-100,-100,-100,0,0,100,0.00,40.00,0,-999,0,0.00
2013-10-9,54,45,38,-100,-100,-100,0,0,100,0.00,40.00,0,-999,0,0.00
2013-10-10,51,42,34,-100,-100,-100,0,0,100,0.00,40.00,0,-999,0,0.01
2013-10-11,41,36,33,-100,-100,-100,0,0,100,0.00,40.00,0,-999,0,0.01
2013-10-12,47,36,30,-100,-100,-100,0,0,100,0.00,40.00,0,-999,0,0.00
2013-10-13,58,44,33,-100,-100,-100,0,0,100,0.00,40.00,0,-999,0,0.00
2013-10-14,39,35,32,-100,-100,-100,0,0,100,0.00,40.00,0,-999,0,0.02
2013-10-15,39,33,30,-100,-100,-100,0,0,100,0.00,40.00,0,-999,0,0.01
2013-10-16,40,33,29,-100,-100,-100,0,0,100,0.00,40.00,0,-999,0,0.00